Flag for Austria Weather past 2 weeks in Knittelfeld, Styria, Austria

Now
73 °F

Scattered clouds.


Feels Like: 77 °F
Forecast: 46 / 72 °F
Wind: 14 mph from Northwest

Location: Zeltweg

Current Time: Aug 27, 2014 at 3:44:49 PM

Latest Report: Aug 27, 2014 at 2:50 PM


Visibility: 25 mi

Pressure: 29.92 "Hg

Humidity: 36%

Dew point: 45 °F

Location of KnittelfeldLocation

Historic Weather in Knittelfeld — Graph

°F

Knittelfeld temperature yesterday

Maximum temperature yesterday: 70 °F (at 1:50 PM)
Minimum temperature yesterday: 48 °F (at 5:50 AM)
Average temperature yesterday: 62 °F

Past Weeks' High & Low Weather Summary

 TemperatureHumidityPressure
High84 °F (Aug 13, 5:50 PM)100% (Aug 12, 2:50 PM)30.15 "Hg (Aug 12, 2:50 PM)
Low43 °F (Aug 18, 5:50 AM)36% (Aug 27, 1:20 PM)29.71 "Hg (Aug 13, 1:50 PM)
Average60 °F75%29.99 "Hg
* Reported Aug 12 2:50 PM — Aug 27 2:20 PM, Knittelfeld, Weather by CustomWeather, © 2014

Note: Actual official high and low records may vary slightly from our data, if they occured in-between our weather recording intervals... More about our weather records

Advertising

Knittelfeld weather history for previous 24 hours

 ConditionsComfort  
Time TempWeatherWind HumidityBarometerVisibility
2:20 PM
Aug 27
73 °FPartly sunny.12 mph36%29.89 "Hg25 mi
1:20 PM73 °FScattered clouds.13 mph36%29.89 "Hg25 mi
12:50 PM70 °FScattered clouds.18 mph43%29.89 "Hg25 mi
12:20 PM72 °FPartly sunny.16 mph38%29.89 "Hg25 mi
11:50 AM72 °FPartly sunny.15 mph38%29.86 "Hg25 mi
11:20 AM70 °FPartly sunny.18 mph38%29.86 "Hg22 mi
10:50 AM70 °FScattered clouds.13 mph43%29.86 "Hg22 mi
10:20 AM66 °FScattered clouds.2 mph73%29.86 "Hg19 mi
9:50 AM61 °FScattered clouds.3 mph88%29.86 "Hg12 mi
9:20 AM61 °FScattered clouds.3 mph77%29.86 "Hg9 mi
8:50 AM61 °FScattered clouds.1 mph83%29.86 "Hg9 mi
8:20 AM59 °FScattered clouds.2 mph88%29.86 "Hg6 mi
7:50 AM57 °FScattered clouds.2 mph100%29.86 "Hg5 mi
7:20 AM57 °FBroken clouds.1 mph100%29.83 "Hg5 mi
6:50 AM57 °FPassing clouds.2 mph94%29.83 "Hg5 mi
5:50 AM55 °FFog.2 mph100%29.83 "Hg3 mi
4:50 AM57 °FPassing clouds.1 mph100%29.83 "Hg9 mi
10:50 PM
Aug 26
61 °FPassing clouds.5 mph83%29.83 "Hg9 mi
9:50 PM61 °FPassing clouds.3 mph88%29.83 "Hg9 mi
8:50 PM66 °FPartly sunny.8 mph68%29.83 "Hg9 mi
7:50 PM66 °FBroken clouds.6 mph64%29.80 "Hg19 mi
7:20 PM66 °FPartly sunny.7 mph64%29.80 "Hg19 mi
6:50 PM68 °FPartly sunny.6 mph60%29.80 "Hg19 mi
6:20 PM68 °FBroken clouds.8 mph60%29.80 "Hg19 mi
5:50 PM68 °FScattered clouds.8 mph60%29.80 "Hg19 mi
5:20 PM70 °FBroken clouds.7 mph57%29.80 "Hg19 mi
4:50 PM70 °FBroken clouds.5 mph57%29.80 "Hg19 mi
4:20 PM70 °FBroken clouds.3 mph57%29.80 "Hg19 mi
3:50 PM70 °FBroken clouds.6 mph57%29.80 "Hg19 mi
3:20 PM70 °FBroken clouds.8 mph57%29.80 "Hg19 mi
Weather by CustomWeather, © 2014

See weather overviewHow to use our weather pages